QPF
0.00 0.00 0.00 0.00 0.00 0.00 0.00 0.00 0.00 0.00 0.00 0.00 0.00 0.00 0.00 0.00 0.00 0.00 0.00 0.00 0.00 0.00 0.00 0.00 0.00 0.00 0.00 0.00 0.00 0.00 0.00 0.03 0.02 0.02 0.01 0.00 0.00 0.00 0.00 0.00 0.00 0.00 0.00 0.00 0.00
0.00 0.00 0.00 0.00 0.00 0.00 0.00 0.00 0.00 0.00 0.00 0.00 0.00 0.00 0.00 0.00 0.00 0.00 0.00 0.00 0.00 0.00 0.00 0.00 0.00 0.00 0.00 0.00 0.00 0.00 0.00 0.02 0.01 0.00 0.00 0.00 0.00 0.00 0.00 0.00 0.00 0.00 0.00 0.00 0.00
0.00 0.00 0.00 0.00 0.00 0.00 0.00 0.00 0.00 0.00 0.00 0.00 0.00 0.00 0.00 0.00 0.00 0.00 0.00 0.00 0.00 0.00 0.00 0.00 0.00 0.00 0.00 0.00 0.00 0.00 0.00 0.00 0.04 0.01 0.00 0.00 0.00 0.00 0.00 0.00 0.00 0.00 0.00 0.00 0.00
0.00 0.00 0.00 0.00 0.00 0.00 0.00 0.00 0.00 0.00 0.00 0.00 0.00 0.00 0.00 0.00 0.00 0.00 0.00 0.00 0.00 0.00 0.00 0.00 0.00 0.00 0.00 0.00 0.00 0.00 0.00 0.00 0.01 0.00 0.02 0.02 0.00 0.00 0.00 0.00 0.00 0.00 0.00 0.00 0.00
0.00 0.00 0.00 0.00 0.00 0.00 0.00 0.00 0.00 0.00 0.00 0.00 0.00 0.00 0.00 0.00 0.00 0.00 0.00 0.00 0.00 0.00 0.00 0.00 0.00 0.00 0.00 0.00 0.00 0.00 0.00 0.00 0.00 0.00 0.01 0.04 0.01 0.00 0.00 0.00 0.00 0.00 0.00 0.00 0.00
0.00 0.00 0.00 0.00 0.00 0.00 0.00 0.00 0.00 0.00 0.00 0.00 0.00 0.00 0.00 0.00 0.00 0.00 0.00 0.00 0.00 0.00 0.00 0.00 0.00 0.00 0.00 0.00 0.00 0.00 0.00 0.00 0.01 0.03 0.07 0.04 0.01 0.01 0.00 0.00 0.00 0.00 0.00 0.00 0.00
0.00 0.00 0.00 0.00 0.00 0.00 0.00 0.00 0.00 0.00 0.00 0.00 0.00 0.00 0.00 0.00 0.00 0.00 0.00 0.00 0.00 0.00 0.00 0.00 0.00 0.00 0.00 0.00 0.00 0.00 0.00 0.00 0.01 0.02 0.12 0.08 0.02 0.01 0.00 0.00 0.00 0.00 0.00 0.00 0.00
0.00 0.00 0.00 0.00 0.00 0.00 0.00 0.00 0.00 0.00 0.00 0.00 0.00 0.00 0.00 0.00 0.00 0.00 0.00 0.00 0.00 0.00 0.00 0.00 0.00 0.00 0.00 0.00 0.01 0.01 0.05 0.09 0.04 0.06 0.11 0.17 0.08 0.03 0.00 0.00 0.00 0.00 0.00 0.00 0.00
0.00 0.00 0.00 0.00 0.00 0.00 0.00 0.00 0.00 0.00 0.00 0.00 0.00 0.00 0.00 0.00 0.00 0.00 0.00 0.00 0.00 0.00 0.00 0.00 0.00 0.00 0.00 0.00 0.00 0.01 0.05 0.05 0.07 0.06 0.06 0.08 0.10 0.04 0.00 0.00 0.07 0.04 0.00 0.00 0.00
0.00 0.00 0.00 0.00 0.00 0.00 0.00 0.00 0.00 0.00 0.00 0.00 0.00 0.00 0.00 0.00 0.00 0.00 0.00 0.00 0.00 0.00 0.00 0.00 0.00 0.00 0.00 0.00 0.00 0.00 0.00 0.00 0.03 0.04 0.05 0.02 0.05 0.00 0.01 0.01 0.07 0.01 0.00 0.00 0.00
0.00 0.00 0.00 0.00 0.00 0.00 0.00 0.00 0.00 0.00 0.00 0.00 0.00 0.00 0.00 0.00 0.00 0.00 0.00 0.00 0.00 0.00 0.00 0.00 0.00 0.00 0.00 0.00 0.00 0.00 0.00 0.00 0.00 0.00 0.01 0.01 0.02 0.00 0.00 0.01 0.03 0.04 0.00 0.00 0.01
0.00 0.00 0.00 0.00 0.00 0.00 0.00 0.00 0.00 0.00 0.00 0.00 0.00 0.00 0.00 0.00 0.00 0.00 0.00 0.00 0.00 0.00 0.00 0.00 0.00 0.00 0.00 0.00 0.00 0.00 0.00 0.01 0.03 0.02 0.02 0.01 0.04 0.02 0.01 0.02 0.01 0.02 0.00 0.00 0.01
0.00 0.00 0.00 0.00 0.00 0.00 0.00 0.00 0.00 0.00 0.00 0.00 0.00 0.00 0.00 0.00 0.00 0.00 0.00 0.00 0.00 0.00 0.00 0.00 0.00 0.00 0.00 0.00 0.00 0.00 0.00 0.00 0.03 0.03 0.06 0.09 0.09 0.04 0.03 0.04 0.01 0.00 0.00 0.00 0.00
0.00 0.00 0.00 0.00 0.00 0.00 0.00 0.00 0.00 0.00 0.00 0.00 0.00 0.00 0.00 0.00 0.00 0.00 0.00 0.00 0.00 0.00 0.00 0.00 0.00 0.00 0.00 0.00 0.00 0.00 0.00 0.00 0.00 0.01 0.05 0.05 0.00 0.01 0.01 0.01 0.01 0.00 0.00 0.00 0.00
0.00 0.00 0.00 0.00 0.00 0.00 0.00 0.00 0.00 0.00 0.00 0.00 0.00 0.00 0.00 0.00 0.00 0.00 0.00 0.00 0.00 0.00 0.00 0.00 0.00 0.00 0.00 0.00 0.00 0.00 0.00 0.00 0.00 0.00 0.00 0.00 0.00 0.00 0.00 0.00 0.00 0.00 0.00 0.00 0.00
0.00 0.00 0.00 0.00 0.00 0.00 0.00 0.00 0.00 0.00 0.00 0.00 0.00 0.00 0.00 0.00 0.00 0.00 0.00 0.00 0.00 0.00 0.00 0.00 0.00 0.00 0.00 0.00 0.00 0.00 0.00 0.00 0.00 0.00 0.00 0.00 0.00 0.00 0.00 0.00 0.00 0.00 0.00 0.00 0.00
0.00 0.00 0.00 0.00 0.00 0.00 0.00 0.00 0.00 0.00 0.00 0.00 0.00 0.00 0.00 0.00 0.00 0.00 0.00 0.00 0.00 0.00 0.00 0.00 0.00 0.00 0.00 0.00 0.00 0.00 0.00 0.00 0.00 0.00 0.00 0.00 0.00 0.00 0.00 0.00 0.00 0.00 0.00 0.00 0.00
0.00 0.00 0.00 0.00 0.00 0.00 0.00 0.00 0.00 0.00 0.00 0.00 0.00 0.00 0.00 0.00 0.00 0.00 0.00 0.00 0.00 0.00 0.00 0.00 0.00 0.00 0.00 0.00 0.00 0.00 0.00 0.00 0.00 0.00 0.00 0.00 0.00 0.00 0.00 0.00 0.00 0.00 0.00 0.00 0.00
0.00 0.00 0.00 0.00 0.00 0.00 0.00 0.00 0.00 0.00 0.00 0.00 0.00 0.00 0.00 0.00 0.00 0.00 0.00 0.00 0.00 0.00 0.00 0.00 0.00 0.00 0.00 0.00 0.00 0.00 0.00 0.00 0.00 0.00 0.00 0.00 0.00 0.00 0.00 0.00 0.00 0.00 0.00 0.00 0.00
0.00 0.00 0.00 0.00 0.00 0.00 0.00 0.00 0.00 0.00 0.00 0.00 0.00 0.00 0.00 0.00 0.00 0.00 0.00 0.00 0.00 0.00 0.00 0.00 0.00 0.00 0.00 0.00 0.00 0.00 0.00 0.00 0.00 0.00 0.00 0.00 0.00 0.00 0.00 0.00 0.00 0.00 0.00 0.00 0.00
0.00 0.00 0.00 0.00 0.00 0.00 0.00 0.00 0.00 0.00 0.00 0.00 0.00 0.00 0.00 0.00 0.00 0.00 0.00 0.00 0.00 0.00 0.00 0.00 0.00 0.00 0.00 0.00 0.00 0.00 0.00 0.00 0.00 0.00 0.00 0.00 0.00 0.00 0.00 0.00 0.00 0.00 0.00 0.00 0.00
0.00 0.00 0.00 0.00 0.00 0.00 0.00 0.00 0.00 0.00 0.00 0.00 0.00 0.00 0.00 0.00 0.00 0.00 0.00 0.00 0.00 0.00 0.00 0.00 0.00 0.00 0.00 0.00 0.00 0.00 0.00 0.00 0.00 0.00 0.00 0.00 0.00 0.00 0.00 0.00 0.00 0.00 0.01 0.01 0.00
0.00 0.00 0.00 0.00 0.00 0.00 0.00 0.00 0.00 0.00 0.00 0.00 0.00 0.00 0.00 0.00 0.00 0.00 0.00 0.00 0.00 0.00 0.00 0.00 0.00 0.00 0.00 0.00 0.00 0.00 0.00 0.00 0.00 0.00 0.00 0.00 0.00 0.00 0.00 0.00 0.01 0.03 0.00 0.00 0.01
0.00 0.00 0.00 0.00 0.00 0.00 0.00 0.00 0.00 0.00 0.00 0.00 0.00 0.00 0.00 0.00 0.00 0.00 0.00 0.00 0.00 0.00 0.00 0.00 0.00 0.00 0.00 0.00 0.00 0.00 0.00 0.00 0.00 0.00 0.00 0.00 0.00 0.00 0.00 0.00 0.01 0.04 0.01 0.00 0.00
0.00 0.00 0.00 0.00 0.00 0.00 0.00 0.00 0.00 0.00 0.00 0.00 0.00 0.00 0.00 0.00 0.00 0.00 0.00 0.00 0.00 0.00 0.00 0.00 0.00 0.00 0.00 0.00 0.00 0.00 0.00 0.00 0.00 0.00 0.00 0.00 0.00 0.00 0.00 0.00 0.00 0.01 0.02 0.01 0.00
0.00 0.00 0.00 0.00 0.00 0.00 0.00 0.00 0.00 0.00 0.00 0.00 0.00 0.00 0.00 0.00 0.00 0.00 0.00 0.00 0.00 0.00 0.00 0.00 0.00 0.00 0.00 0.00 0.00 0.00 0.00 0.00 0.00 0.00 0.00 0.00 0.00 0.00 0.00 0.00 0.00 0.00 0.02 0.03 0.00
0.00 0.00 0.00 0.00 0.00 0.00 0.00 0.00 0.00 0.00 0.00 0.00 0.00 0.00 0.00 0.00 0.00 0.00 0.00 0.00 0.00 0.00 0.00 0.00 0.00 0.00 0.00 0.00 0.00 0.00 0.00 0.00 0.00 0.00 0.00 0.00 0.00 0.00 0.00 0.00 0.00 0.01 0.00 0.01 0.01
MSLP
1017.48 1017.29 1017.05 1016.86 1016.72 1016.55 1016.45 1016.34 1016.12 1015.96 1015.88 1015.83 1015.82 1015.71 1015.44 1015.16 1014.81 1014.50 1013.12 1011.01 1011.05 1011.19 1011.37 1011.72 1011.92 1011.90 1011.89 1011.61 1011.74 1012.15 1012.25 1012.86 1013.02 1012.33 1012.19 1011.85 1011.89 1012.36 1012.55 1012.89 1013.57 1014.06 1014.62 1015.61 1016.91
1017.33 1017.18 1016.98 1016.80 1016.64 1016.43 1016.31 1016.17 1016.11 1015.94 1015.73 1015.66 1015.61 1015.52 1015.35 1015.08 1014.59 1013.13 1010.53 1010.70 1010.90 1011.16 1011.09 1011.02 1011.39 1011.69 1011.49 1011.30 1011.34 1011.21 1012.00 1012.67 1012.33 1012.44 1012.37 1012.14 1011.98 1012.38 1012.77 1013.39 1014.43 1014.73 1015.62 1016.50 1017.15
1017.10 1016.95 1016.82 1016.61 1016.37 1016.20 1016.04 1015.95 1015.90 1015.85 1015.75 1015.53 1015.51 1015.40 1015.17 1015.01 1013.73 1010.41 1009.62 1010.28 1010.72 1010.95 1010.95 1010.94 1011.10 1011.15 1011.11 1011.12 1011.03 1011.12 1011.43 1011.81 1012.11 1012.33 1012.37 1012.30 1012.41 1012.92 1013.29 1013.55 1013.97 1014.20 1015.47 1016.57 1016.95
1016.94 1016.72 1016.54 1016.34 1016.13 1015.92 1015.80 1015.72 1015.66 1015.62 1015.60 1015.58 1015.36 1015.23 1014.97 1014.78 1012.34 1009.81 1009.51 1010.09 1010.63 1010.95 1010.94 1010.96 1011.14 1010.88 1010.84 1010.76 1010.89 1010.97 1011.19 1011.39 1011.51 1012.01 1012.36 1012.65 1012.86 1013.48 1013.99 1013.99 1014.18 1014.97 1015.46 1016.33 1016.88
1016.75 1016.48 1016.24 1016.04 1015.86 1015.65 1015.54 1015.42 1015.28 1015.39 1015.37 1015.37 1015.24 1015.03 1014.84 1013.55 1010.85 1009.85 1010.31 1010.49 1010.71 1010.92 1010.64 1010.70 1010.74 1010.61 1010.33 1010.54 1010.64 1010.70 1010.82 1011.22 1011.32 1011.88 1012.59 1013.14 1013.72 1014.28 1014.86 1014.71 1014.92 1015.60 1016.08 1016.46 1016.91
1016.55 1016.35 1016.14 1015.92 1015.68 1015.45 1015.34 1015.24 1015.19 1015.10 1015.08 1014.91 1015.06 1014.88 1014.21 1012.04 1009.74 1009.77 1010.11 1010.75 1010.66 1010.83 1010.82 1010.65 1010.41 1010.30 1010.17 1010.37 1010.40 1010.42 1010.79 1011.24 1011.78 1012.08 1012.98 1013.66 1014.82 1014.81 1015.58 1015.46 1015.53 1015.84 1016.04 1016.38 1016.87
1016.43 1016.14 1015.95 1015.82 1015.60 1015.53 1015.42 1015.22 1015.14 1015.00 1014.79 1014.73 1014.73 1014.59 1013.24 1011.20 1010.26 1009.97 1010.37 1010.89 1010.88 1010.73 1010.79 1010.78 1010.54 1010.32 1010.19 1010.05 1010.44 1010.43 1010.84 1011.48 1012.19 1012.61 1013.70 1014.28 1015.29 1015.58 1015.54 1015.60 1015.78 1015.97 1016.21 1016.50 1016.89
1016.27 1015.97 1015.67 1015.43 1015.31 1015.21 1015.04 1014.91 1014.83 1014.81 1014.75 1014.64 1014.59 1014.33 1011.87 1010.57 1010.66 1010.14 1010.26 1011.01 1011.23 1011.03 1010.92 1011.01 1010.68 1010.36 1010.17 1010.22 1010.31 1010.34 1010.93 1011.20 1012.36 1012.73 1013.98 1014.54 1014.75 1015.03 1015.57 1015.67 1015.96 1016.15 1016.28 1016.49 1016.81
1016.07 1015.73 1015.52 1015.33 1015.20 1015.12 1015.04 1014.82 1014.58 1014.46 1014.48 1014.49 1014.41 1013.62 1011.03 1010.41 1010.43 1010.15 1009.84 1010.50 1011.14 1011.14 1010.99 1010.92 1010.72 1010.47 1010.32 1009.79 1010.00 1010.50 1010.25 1010.74 1012.05 1012.68 1013.50 1014.19 1013.78 1014.56 1015.34 1015.67 1015.80 1015.99 1016.14 1016.44 1016.79
1015.91 1015.62 1015.39 1015.21 1015.12 1015.10 1014.91 1014.61 1014.24 1014.31 1014.30 1014.34 1013.77 1013.18 1010.64 1009.75 1009.72 1010.22 1010.08 1010.09 1010.89 1011.09 1010.82 1010.84 1010.81 1010.32 1010.08 1009.58 1008.88 1009.57 1010.02 1010.68 1011.17 1012.34 1012.88 1013.34 1013.51 1014.04 1014.86 1015.71 1015.82 1016.10 1016.27 1016.31 1016.47
1015.73 1015.50 1015.31 1015.10 1014.78 1014.76 1014.65 1014.52 1014.46 1014.01 1013.45 1011.88 1011.49 1010.77 1009.68 1009.41 1009.46 1010.02 1009.99 1009.75 1010.49 1011.00 1010.44 1010.69 1010.26 1009.60 1009.43 1009.40 1009.29 1009.40 1009.80 1010.31 1011.30 1011.92 1012.35 1012.87 1013.28 1013.89 1014.79 1015.83 1015.89 1016.16 1016.26 1016.22 1016.25
1015.58 1015.38 1015.13 1014.84 1014.70 1014.70 1014.80 1013.48 1011.98 1011.82 1011.38 1010.73 1010.60 1010.20 1009.65 1009.30 1009.15 1009.82 1009.96 1009.35 1009.75 1010.30 1010.67 1010.64 1009.86 1009.87 1009.74 1009.61 1009.34 1009.42 1009.60 1010.45 1011.46 1012.00 1012.22 1012.79 1013.29 1013.98 1014.52 1014.93 1015.52 1016.09 1016.47 1016.38 1016.42
1015.48 1015.19 1015.02 1014.76 1014.56 1014.63 1013.71 1012.13 1011.36 1011.29 1010.97 1009.97 1009.63 1009.08 1008.68 1008.84 1008.60 1009.14 1009.50 1009.19 1009.14 1009.67 1010.05 1009.86 1009.69 1009.87 1009.76 1009.58 1009.32 1009.41 1009.48 1010.25 1010.69 1011.82 1012.11 1012.55 1013.46 1014.11 1014.69 1015.34 1015.92 1016.34 1016.53 1016.47 1016.33
1015.13 1014.95 1014.83 1014.76 1014.95 1013.65 1012.59 1011.31 1011.44 1011.45 1010.56 1009.52 1008.70 1007.95 1008.27 1008.12 1008.34 1008.61 1008.82 1008.69 1008.99 1009.21 1009.70 1009.77 1009.97 1009.68 1009.56 1009.36 1009.41 1009.27 1009.58 1010.07 1010.69 1011.10 1011.43 1012.28 1012.66 1013.70 1014.04 1014.76 1015.23 1015.91 1016.19 1016.08 1016.27
1014.91 1014.67 1014.56 1014.60 1014.05 1013.00 1011.57 1011.35 1011.46 1011.40 1009.79 1008.80 1007.95 1007.47 1007.81 1007.84 1007.88 1008.54 1008.52 1008.43 1008.51 1008.83 1009.36 1009.65 1009.72 1009.69 1009.43 1009.25 1009.52 1009.46 1009.62 1009.75 1010.40 1011.02 1011.27 1011.87 1012.08 1012.78 1013.67 1013.97 1014.32 1014.82 1015.22 1015.49 1016.01
1014.50 1014.27 1014.22 1014.38 1013.98 1011.76 1011.35 1011.27 1011.31 1010.70 1009.26 1008.25 1007.71 1007.41 1007.41 1007.52 1007.78 1008.27 1008.45 1008.35 1008.77 1008.85 1009.19 1009.36 1009.60 1009.47 1009.17 1009.25 1009.43 1009.81 1009.82 1010.37 1010.82 1011.14 1011.03 1010.84 1011.39 1011.82 1012.63 1012.35 1013.32 1014.05 1014.58 1015.04 1015.75
1013.93 1013.78 1013.86 1013.32 1011.96 1011.34 1011.26 1011.07 1010.69 1009.74 1009.29 1008.68 1008.03 1007.67 1007.55 1007.90 1008.03 1008.11 1008.35 1008.53 1008.58 1008.95 1008.84 1009.10 1009.11 1009.17 1009.24 1009.10 1009.62 1009.67 1009.17 1009.74 1010.44 1010.67 1010.18 1011.03 1011.39 1010.49 1011.78 1012.12 1012.21 1012.74 1013.57 1014.50 1015.27
1013.25 1012.85 1012.62 1012.17 1011.52 1011.37 1010.83 1010.54 1010.06 1009.66 1009.04 1008.76 1008.43 1008.24 1008.24 1008.60 1008.89 1008.76 1008.83 1009.07 1009.38 1009.25 1009.09 1008.88 1008.88 1008.70 1008.73 1008.55 1008.63 1009.12 1008.75 1007.93 1008.30 1009.10 1009.51 1010.98 1010.60 1010.54 1011.69 1012.00 1011.89 1012.17 1012.94 1014.33 1014.91
1012.60 1012.29 1012.05 1011.42 1011.38 1011.49 1010.51 1010.15 1009.89 1009.53 1009.15 1008.75 1008.64 1008.57 1008.96 1009.12 1009.07 1009.23 1009.42 1009.30 1009.28 1009.32 1009.16 1009.15 1008.59 1008.32 1008.52 1008.40 1008.41 1008.86 1008.83 1008.30 1008.14 1009.12 1009.09 1009.78 1010.34 1010.92 1011.69 1011.63 1011.71 1012.03 1012.91 1014.01 1014.72
1012.67 1011.80 1011.26 1010.92 1011.05 1010.86 1010.37 1009.98 1009.82 1009.62 1009.23 1008.96 1008.80 1009.28 1009.27 1009.55 1009.51 1009.49 1009.63 1009.64 1009.49 1009.62 1009.71 1009.27 1008.74 1008.33 1008.20 1008.47 1008.66 1008.15 1008.06 1008.32 1008.08 1007.92 1008.30 1009.55 1009.99 1010.00 1011.31 1011.51 1011.66 1011.98 1012.44 1013.47 1014.51
1012.32 1011.48 1011.28 1011.15 1011.09 1010.23 1010.19 1010.06 1009.68 1009.38 1009.31 1008.99 1009.08 1009.43 1009.86 1009.90 1009.95 1009.92 1010.04 1009.89 1009.75 1009.93 1009.89 1009.72 1009.19 1008.70 1008.44 1008.32 1008.30 1008.46 1008.09 1008.15 1007.72 1007.91 1007.53 1008.68 1009.56 1010.49 1010.95 1011.62 1012.02 1012.12 1012.55 1013.27 1014.17
1012.06 1011.40 1011.41 1011.36 1010.76 1010.98 1010.25 1010.09 1009.67 1009.38 1009.24 1009.06 1009.36 1009.74 1010.10 1010.24 1010.18 1010.13 1009.98 1009.93 1009.98 1009.91 1009.88 1010.19 1009.55 1008.79 1008.80 1009.01 1009.22 1008.77 1008.51 1008.13 1007.40 1008.14 1008.40 1008.69 1009.80 1010.98 1011.55 1012.05 1012.64 1012.97 1013.40 1013.59 1014.20
1012.39 1011.80 1011.21 1011.01 1010.76 1010.73 1010.51 1009.99 1009.88 1009.57 1009.82 1009.61 1009.75 1009.98 1010.39 1010.59 1010.62 1010.47 1010.33 1010.16 1010.27 1010.20 1010.27 1010.35 1010.16 1009.33 1009.15 1009.51 1009.49 1009.21 1009.23 1008.94 1008.44 1008.00 1008.01 1008.43 1009.86 1011.36 1011.80 1012.59 1013.28 1013.71 1014.06 1014.42 1014.82
1012.52 1011.89 1011.60 1011.33 1011.44 1010.87 1010.54 1010.29 1010.21 1010.29 1010.44 1010.53 1010.61 1010.46 1010.41 1010.58 1010.81 1010.71 1010.51 1010.50 1010.58 1010.59 1010.78 1010.67 1010.63 1010.04 1009.61 1009.65 1010.00 1009.71 1009.57 1009.24 1008.56 1007.86 1007.90 1008.39 1009.69 1011.27 1011.99 1012.70 1013.75 1014.16 1014.54 1015.10 1015.30
1012.85 1012.68 1012.49 1011.92 1011.53 1011.10 1010.80 1010.62 1010.54 1010.68 1010.76 1010.93 1011.09 1011.23 1011.05 1011.04 1010.94 1011.02 1010.98 1010.86 1010.95 1011.19 1011.19 1011.01 1010.78 1010.99 1010.76 1010.66 1010.48 1010.24 1009.94 1009.48 1008.98 1008.59 1008.14 1008.33 1009.14 1009.87 1011.49 1012.76 1013.86 1014.59 1015.22 1015.79 1016.40
1013.26 1012.70 1012.82 1012.31 1011.98 1011.37 1011.13 1010.98 1010.90 1011.37 1011.30 1011.33 1011.52 1011.77 1011.52 1011.69 1011.88 1011.62 1011.57 1011.52 1011.51 1011.38 1011.47 1011.78 1011.66 1011.59 1011.33 1011.30 1011.10 1010.61 1010.07 1009.70 1009.70 1009.56 1009.20 1009.35 1009.76 1010.75 1011.92 1013.32 1014.29 1014.98 1015.69 1016.25 1016.84
1013.87 1013.42 1012.74 1012.66 1011.89 1011.38 1011.59 1011.40 1011.44 1011.48 1011.95 1011.95 1012.03 1011.99 1012.11 1012.49 1012.42 1012.33 1012.22 1012.28 1012.30 1011.98 1011.94 1012.00 1011.84 1011.76 1011.52 1011.78 1011.30 1010.95 1010.63 1010.23 1010.34 1010.43 1010.33 1010.01 1010.89 1011.79 1012.70 1013.25 1014.14 1015.00 1015.78 1016.47 1017.39
Thickness
5709 5708 5707 5707 5706 5706 5706 5707 5710 5714 5718 5720 5722 5725 5729 5733 5738 5742 5751 5773 5777 5781 5782 5780 5778 5778 5779 5779 5784 5778 5755 5737 5743 5759 5758 5777 5769 5778 5784 5773 5771 5771 5767 5766 5758
5709 5707 5705 5704 5704 5703 5703 5704 5705 5708 5712 5716 5719 5722 5726 5730 5736 5745 5772 5773 5775 5778 5778 5776 5770 5773 5770 5774 5780 5775 5753 5745 5756 5763 5763 5773 5776 5775 5771 5766 5756 5760 5763 5761 5756
5708 5706 5704 5702 5702 5702 5702 5701 5702 5704 5706 5710 5714 5717 5722 5726 5738 5763 5775 5773 5773 5775 5779 5780 5778 5774 5767 5773 5777 5776 5758 5768 5769 5774 5776 5774 5775 5777 5766 5758 5765 5762 5758 5757 5757
5706 5704 5703 5701 5700 5699 5699 5699 5699 5699 5703 5704 5708 5713 5718 5722 5739 5766 5773 5772 5770 5771 5774 5771 5769 5764 5762 5762 5777 5767 5776 5778 5779 5778 5775 5769 5774 5766 5762 5764 5773 5768 5765 5760 5755
5703 5701 5700 5698 5697 5697 5696 5696 5697 5697 5698 5700 5704 5708 5713 5725 5744 5763 5763 5765 5765 5766 5767 5765 5762 5762 5761 5767 5772 5770 5777 5780 5785 5779 5775 5774 5763 5755 5751 5767 5769 5764 5761 5758 5756
5700 5697 5695 5693 5692 5692 5693 5693 5693 5694 5695 5697 5699 5704 5711 5725 5755 5759 5760 5758 5761 5760 5760 5766 5764 5770 5766 5767 5769 5778 5778 5776 5774 5775 5771 5760 5750 5751 5749 5762 5761 5759 5759 5759 5758
5695 5693 5690 5688 5686 5684 5685 5686 5687 5689 5692 5694 5695 5700 5710 5726 5744 5751 5752 5751 5756 5757 5752 5761 5768 5766 5769 5766 5775 5777 5765 5768 5766 5768 5756 5755 5733 5739 5754 5759 5756 5757 5758 5758 5758
5690 5688 5686 5685 5683 5682 5683 5682 5682 5683 5685 5688 5691 5694 5714 5733 5735 5743 5747 5743 5749 5754 5755 5759 5766 5763 5765 5774 5769 5764 5763 5752 5759 5765 5756 5752 5733 5747 5756 5756 5750 5755 5757 5757 5757
5685 5682 5680 5678 5676 5676 5676 5678 5679 5680 5681 5682 5686 5692 5710 5727 5726 5737 5745 5737 5739 5745 5751 5757 5758 5753 5760 5759 5755 5752 5749 5756 5752 5764 5754 5747 5751 5755 5759 5752 5750 5754 5758 5758 5757
5679 5676 5673 5672 5669 5669 5669 5670 5672 5672 5675 5676 5683 5688 5711 5716 5725 5729 5737 5740 5731 5733 5737 5740 5741 5743 5748 5754 5746 5748 5750 5755 5755 5758 5760 5753 5753 5759 5759 5749 5751 5751 5754 5757 5758
5673 5670 5667 5665 5665 5665 5664 5664 5666 5668 5671 5692 5696 5700 5710 5720 5727 5720 5731 5733 5730 5723 5721 5731 5731 5735 5749 5755 5759 5759 5756 5753 5755 5763 5760 5757 5756 5757 5756 5748 5745 5749 5753 5757 5758
5667 5664 5661 5660 5659 5659 5656 5667 5677 5677 5677 5687 5689 5695 5705 5714 5708 5712 5726 5722 5721 5710 5717 5721 5724 5739 5747 5750 5753 5755 5752 5745 5748 5755 5756 5752 5750 5755 5757 5755 5756 5749 5748 5750 5757
5661 5658 5655 5654 5655 5655 5662 5672 5678 5678 5670 5684 5690 5697 5704 5709 5706 5707 5717 5719 5717 5712 5715 5719 5730 5736 5739 5740 5744 5748 5750 5745 5749 5747 5755 5752 5738 5741 5751 5751 5750 5746 5748 5752 5756
5658 5654 5651 5649 5651 5658 5664 5675 5673 5673 5663 5675 5687 5699 5701 5707 5699 5715 5721 5719 5714 5710 5715 5718 5725 5727 5731 5735 5743 5738 5753 5753 5745 5745 5736 5746 5726 5732 5745 5745 5749 5746 5745 5750 5755
5653 5650 5648 5645 5654 5659 5669 5670 5670 5668 5641 5678 5685 5707 5702 5699 5705 5701 5719 5718 5707 5711 5714 5707 5712 5716 5720 5734 5742 5741 5751 5753 5748 5738 5740 5736 5737 5742 5741 5738 5745 5751 5752 5752 5756
5650 5647 5646 5644 5646 5665 5668 5669 5668 5653 5638 5669 5684 5685 5690 5698 5699 5701 5705 5718 5715 5709 5711 5710 5721 5722 5728 5735 5740 5741 5738 5735 5734 5730 5718 5745 5745 5741 5737 5756 5756 5758 5759 5756 5753
5650 5648 5646 5649 5664 5665 5667 5666 5650 5643 5666 5662 5669 5681 5685 5681 5688 5696 5692 5693 5692 5684 5691 5705 5709 5721 5727 5722 5728 5729 5734 5705 5701 5702 5720 5733 5730 5760 5756 5761 5768 5766 5763 5760 5752
5653 5655 5655 5657 5662 5664 5668 5660 5636 5652 5658 5671 5670 5672 5672 5674 5673 5682 5684 5680 5688 5693 5687 5687 5687 5714 5725 5725 5723 5724 5734 5729 5703 5709 5733 5727 5728 5758 5755 5761 5771 5774 5770 5757 5754
5656 5658 5658 5664 5664 5663 5665 5642 5646 5655 5665 5667 5669 5666 5664 5671 5676 5674 5673 5680 5689 5696 5685 5683 5693 5720 5720 5727 5732 5716 5709 5742 5726 5721 5732 5730 5740 5752 5751 5758 5767 5768 5764 5754 5753
5655 5661 5664 5666 5666 5667 5657 5641 5654 5662 5669 5670 5661 5662 5660 5664 5669 5672 5670 5680 5684 5692 5696 5698 5690 5714 5720 5723 5723 5728 5742 5716 5721 5702 5708 5712 5726 5751 5741 5750 5762 5762 5763 5758 5754
5658 5663 5662 5663 5665 5667 5649 5649 5658 5670 5670 5670 5664 5662 5660 5663 5664 5664 5664 5678 5686 5686 5693 5693 5697 5702 5712 5711 5711 5715 5719 5720 5733 5727 5725 5714 5730 5748 5751 5752 5752 5761 5761 5758 5753
5658 5658 5660 5662 5659 5644 5654 5654 5661 5668 5673 5674 5671 5666 5661 5661 5662 5664 5668 5674 5686 5690 5686 5687 5696 5691 5698 5708 5709 5714 5714 5723 5721 5705 5718 5729 5734 5742 5747 5750 5751 5751 5751 5757 5755
5653 5653 5661 5663 5652 5652 5654 5661 5661 5663 5659 5666 5664 5667 5665 5658 5656 5662 5665 5681 5682 5683 5681 5684 5679 5679 5687 5696 5703 5701 5706 5710 5716 5724 5718 5723 5730 5732 5743 5742 5741 5741 5744 5746 5747
5653 5654 5655 5655 5648 5653 5652 5654 5653 5658 5653 5655 5655 5663 5662 5658 5657 5655 5663 5672 5678 5677 5674 5680 5670 5678 5677 5683 5687 5688 5696 5704 5715 5717 5723 5728 5724 5719 5728 5733 5730 5735 5738 5735 5739
5649 5645 5644 5650 5650 5650 5653 5653 5651 5649 5655 5654 5651 5648 5652 5648 5651 5649 5657 5664 5669 5666 5668 5674 5666 5664 5670 5675 5680 5681 5686 5698 5703 5714 5720 5732 5729 5738 5730 5726 5725 5727 5726 5722 5720
5647 5649 5641 5641 5640 5650 5647 5651 5651 5645 5652 5649 5646 5646 5651 5642 5640 5641 5648 5651 5654 5664 5660 5658 5651 5657 5658 5665 5669 5672 5686 5694 5695 5700 5710 5715 5721 5727 5730 5721 5717 5717 5716 5715 5713
5638 5640 5646 5632 5645 5652 5644 5647 5646 5650 5646 5647 5646 5647 5646 5643 5646 5649 5651 5649 5647 5652 5651 5651 5652 5651 5647 5651 5660 5659 5672 5682 5685 5691 5696 5704 5708 5711 5708 5711 5710 5710 5710 5709 5704